Breckenridge, CO

2:26 AM MST on February 11, 2016 (GMT -0700)
Copper Mountain

Weather History for KCCU - March, 2013

Change the Weather History Date:

Sunday, March 10, 2013

  Actual Average (KLXV) Record (KLXV)
Temperature  
Mean Temperature 12 °F -  
Max Temperature 19 °F 31 °F 57 °F (1989)
Min Temperature 5 °F 12 °F -9 °F (1979)
Degree Days  
Heating Degree Days 53    
Moisture  
Dew Point 6 °F    
Average Humidity 76    
Maximum Humidity 80    
Minimum Humidity 66    
Precipitation  
Precipitation 0.00 in - - ()
Sea Level Pressure  
Sea Level Pressure 30.07 in    
Wind  
Wind Speed 17 mph (West)    
Max Wind Speed 23 mph    
Max Gust Speed 117 mph    
Visibility 9 miles    
Events Snow    
Averages and records for this station are not official NWS values.
T = Trace of Precipitation, MM = Missing Value Source: NWS Daily Summary

Daily Weather History Graph

Daily Weather History Graph

Search for Another Location

Airport or City:

Trip Planner

Search our weather history database for the weather conditions in past years. The results will help you decide how hot, cold, wet, or windy it might be!

Date:

Astronomy

Mar. 10, 2013 Rise Set
Actual Time 7:23 AM MDT 7:06 PM MDT
Civil Twilight 6:56 AM MDT 7:33 PM MDT
Nautical Twilight 6:25 AM MDT 8:04 PM MDT
Astronomical Twilight 5:54 AM MDT 8:36 PM MDT
Moon 6:24 AM MDT (3/10) 6:17 PM MDT (3/10)
Length of Visible Light 12h 36m
Length of Day
11h 43m
Waning Crescent, 1% of the Moon is Illuminated
Mar 10
Waning Crescent
Mar 11
New
Mar 19
First Quarter
Mar 27
Full
Apr 2
Last Quarter

Hourly Weather History & Observations

Time (MDT) Temp. Windchill Dew Point Humidity Pressure Visibility Wind Dir Wind Speed Gust Speed Precip Events Conditions
12:12 AM 8.6 °F -8.9 °F 1.4 °F 73% 29.92 in - WNW 16.1 mph 20.7 mph N/A   Overcast
12:32 AM 8.6 °F -9.5 °F 1.4 °F 73% 29.93 in - WNW 17.3 mph 24.2 mph N/A   Overcast
12:52 AM 8.6 °F -10.0 °F 1.4 °F 73% 29.93 in - WNW 18.4 mph 23.0 mph N/A   Overcast
1:12 AM 8.6 °F - 1.4 °F 73% 29.94 in - North - - N/A   Overcast
1:32 AM 8.6 °F - 1.4 °F 73% 29.95 in - North - - N/A   Overcast
1:52 AM 8.6 °F - 1.4 °F 73% 29.95 in - North - - N/A   Overcast
3:12 AM 8.6 °F -8.3 °F 1.4 °F 73% 29.95 in - WNW 15.0 mph - N/A   Overcast
3:32 AM 8.6 °F -8.9 °F 1.4 °F 73% 29.95 in - WNW 16.1 mph - N/A   Overcast
3:52 AM 6.8 °F -12.4 °F -0.4 °F 72% 29.94 in - West 18.4 mph - N/A   Overcast
4:12 AM 6.8 °F -12.4 °F -0.4 °F 72% 29.94 in - West 18.4 mph 23.0 mph N/A   Overcast
4:32 AM 5.0 °F -14.2 °F -0.4 °F 78% 29.95 in - West 17.3 mph 23.0 mph N/A   Overcast
4:52 AM 5.0 °F -14.2 °F -0.4 °F 78% 29.96 in - West 17.3 mph 27.6 mph N/A   Overcast
5:12 AM 5.0 °F -14.2 °F -0.4 °F 78% 29.97 in - West 17.3 mph 24.2 mph N/A   Overcast
6:12 AM 5.0 °F -14.7 °F -2.2 °F 72% 29.99 in - West 18.4 mph 24.2 mph N/A   Overcast
6:32 AM 5.0 °F -14.2 °F -2.2 °F 72% 29.99 in - West 17.3 mph 25.3 mph N/A   Overcast
6:52 AM 5.0 °F -13.6 °F -2.2 °F 72% 29.99 in - West 16.1 mph 19.6 mph N/A   Overcast
7:12 AM 5.0 °F -13.6 °F -2.2 °F 72% 30.00 in - West 16.1 mph 19.6 mph N/A   Overcast
7:32 AM 5.0 °F -13.6 °F -2.2 °F 72% 30.01 in - West 16.1 mph 20.7 mph N/A   Overcast
7:52 AM 5.0 °F -13.6 °F -4.0 °F 66% 30.02 in - West 16.1 mph 20.7 mph N/A   Overcast
8:12 AM 5.0 °F -13.0 °F -4.0 °F 66% 30.02 in - West 15.0 mph 19.6 mph N/A   Mostly Cloudy
8:32 AM 5.0 °F -13.0 °F -2.2 °F 72% 30.02 in - West 15.0 mph 20.7 mph N/A   Mostly Cloudy
8:52 AM 5.0 °F -14.7 °F -0.4 °F 78% 30.04 in - West 18.4 mph - N/A   Overcast
9:12 AM 6.8 °F - -0.4 °F 72% 30.05 in - North - - N/A   Overcast
9:32 AM 8.6 °F - 1.4 °F 73% 30.05 in - North - - N/A   Overcast
9:52 AM 8.6 °F - 1.4 °F 73% 30.06 in - North - - N/A   Overcast
10:12 AM 8.6 °F -7.7 °F 1.4 °F 73% 30.07 in - West 13.8 mph - N/A   Mostly Cloudy
10:32 AM 8.6 °F -7.7 °F 1.4 °F 73% 30.07 in - West 13.8 mph - N/A   Scattered Clouds
10:52 AM 10.4 °F -5.4 °F 3.2 °F 73% 30.07 in - West 13.8 mph - N/A   Scattered Clouds
11:32 AM 12.2 °F - 5.0 °F 73% 30.07 in - North - - N/A   Scattered Clouds
11:52 AM 14.0 °F - 8.6 °F 79% 30.08 in - North - - N/A   Scattered Clouds
12:12 PM 14.0 °F -1.4 °F 8.6 °F 79% 30.08 in - West 15.0 mph - N/A   Scattered Clouds
12:32 PM 14.0 °F -0.2 °F 8.6 °F 79% 30.07 in - West 12.7 mph 19.6 mph N/A   Scattered Clouds
12:52 PM 14.0 °F -3.0 °F 8.6 °F 79% 30.07 in - West 18.4 mph - N/A   Scattered Clouds
1:12 PM 17.6 °F 0.9 °F 10.4 °F 73% 30.07 in - WNW 20.7 mph 25.3 mph N/A   Scattered Clouds
1:32 PM 17.6 °F 2.2 °F 10.4 °F 73% 30.07 in - WNW 17.3 mph - N/A   Scattered Clouds
1:52 PM 19.4 °F 3.2 °F 12.2 °F 74% 30.06 in - West 20.7 mph - N/A   Scattered Clouds
2:12 PM 19.4 °F - 14.0 °F 80% 30.06 in - North - - N/A   Scattered Clouds
2:32 PM 19.4 °F 2.8 °F 14.0 °F 80% 30.07 in - WNW 21.9 mph - N/A   Mostly Cloudy
2:52 PM 19.4 °F - 14.0 °F 80% 30.07 in - North - - N/A   Scattered Clouds
3:12 PM 19.4 °F - 14.0 °F 80% 30.08 in - North - - N/A   Scattered Clouds
3:32 PM 19.4 °F 3.6 °F 14.0 °F 80% 30.09 in - West 19.6 mph - N/A   Mostly Cloudy
3:52 PM 19.4 °F - 12.2 °F 74% 30.10 in - North - - N/A   Mostly Cloudy
4:12 PM 19.4 °F - 14.0 °F 80% 30.10 in - North - - N/A   Scattered Clouds
4:32 PM 19.4 °F - 14.0 °F 80% 30.10 in - North - - N/A   Scattered Clouds
4:52 PM 19.4 °F - 14.0 °F 80% 30.10 in - North - - N/A   Mostly Cloudy
5:12 PM 19.4 °F - 14.0 °F 80% 30.12 in - North - - N/A   Overcast
5:32 PM 17.6 °F 0.5 °F 12.2 °F 79% 30.12 in - West 21.9 mph - N/A   Overcast
5:52 PM 17.6 °F 0.5 °F 10.4 °F 73% 30.12 in - West 21.9 mph 25.3 mph N/A   Overcast
6:12 PM 17.6 °F - 10.4 °F 73% 30.13 in 2.5 mi North - - N/A Snow Light Snow
6:32 PM 17.6 °F 0.1 °F 10.4 °F 73% 30.14 in 2.0 mi West 23.0 mph - N/A Snow Light Snow
6:52 PM 17.6 °F 0.5 °F 10.4 °F 73% 30.15 in 5.0 mi West 21.9 mph - N/A Snow Light Snow
7:12 PM 15.8 °F -1.9 °F 10.4 °F 79% 30.14 in 10.0 mi West 21.9 mph - N/A Snow Light Snow
7:32 PM 15.8 °F -0.2 °F 10.4 °F 79% 30.15 in 10.0 mi West 17.3 mph 24.2 mph N/A   Scattered Clouds
7:52 PM 15.8 °F -0.6 °F 10.4 °F 79% 30.17 in 10.0 mi West 18.4 mph 24.2 mph N/A Snow Light Snow
8:12 PM 17.6 °F 1.3 °F 10.4 °F 73% 30.17 in 7.0 mi West 19.6 mph 117.4 mph N/A Snow Light Snow
8:32 PM 15.8 °F 1.4 °F 10.4 °F 79% 30.15 in 10.0 mi West 13.8 mph - N/A Snow Light Snow
8:52 PM 15.8 °F 3.4 °F 10.4 °F 79% 30.15 in 10.0 mi West 10.4 mph - N/A Snow Light Snow
9:12 PM 14.0 °F 3.9 °F 8.6 °F 79% 30.15 in 10.0 mi WSW 6.9 mph 17.3 mph N/A Snow Light Snow
9:32 PM 15.8 °F 2.7 °F 10.4 °F 79% 30.16 in 10.0 mi West 11.5 mph - N/A Snow Light Snow
9:52 PM 15.8 °F -1.1 °F 10.4 °F 79% 30.17 in 10.0 mi West 19.6 mph - N/A   Scattered Clouds
10:12 PM 15.8 °F -1.1 °F 10.4 °F 79% 30.17 in 10.0 mi West 19.6 mph - N/A   Clear
10:32 PM 15.8 °F -0.6 °F 10.4 °F 79% 30.16 in 10.0 mi West 18.4 mph - N/A   Clear
11:12 PM 15.8 °F 1.4 °F 10.4 °F 79% 30.17 in 10.0 mi West 13.8 mph - N/A   Clear
11:32 PM 15.8 °F - 10.4 °F 79% 30.17 in 10.0 mi North - - N/A   Clear
11:52 PM 14.0 °F -0.8 °F 8.6 °F 79% 30.16 in 10.0 mi West 13.8 mph - N/A   Clear
12:12 AM 14.0 °F -2.5 °F 8.6 °F 79% 30.15 in 10.0 mi West 17.3 mph - N/A   Clear
12:52 AM 15.8 °F 0.9 °F 10.4 °F 79% 30.15 in 10.0 mi West 15.0 mph - N/A   Mostly Cloudy